Temperature
11 11 12 12 13 13 13 13 14 15 16 17 17 17 17 17 17 17 17 17 17 16 16 16 16 16 16 16 16 16 16 16 16 16 16 16 16 16
10 11 11 12 12 12 13 13 13 14 15 16 17 17 17 17 17 17 17 17 16 16 16 16 16 16 16 16 16 16 16 16 16 16 16 16 16 16
10 10 10 11 11 12 12 12 13 13 14 15 16 16 16 16 16 16 16 16 16 16 16 16 16 16 16 16 16 17 16 16 16 16 16 16 16 16
9 9 10 10 11 11 11 12 12 13 13 14 15 16 16 16 16 16 16 16 16 16 16 16 16 16 16 16 17 17 16 16 16 16 16 16 16 16
9 9 9 10 10 10 11 11 11 12 12 13 14 15 15 16 15 15 15 15 15 16 16 16 16 16 16 16 16 16 16 16 16 16 16 16 16 16
8 8 9 9 9 10 10 10 11 11 12 12 13 14 14 15 15 15 15 14 15 15 15 16 16 16 16 16 16 16 16 16 16 16 16 16 16 15
8 8 8 8 9 9 10 10 10 10 11 11 12 13 13 14 14 15 14 14 14 14 14 15 15 15 15 16 16 16 16 16 16 16 16 15 15 15
7 7 8 8 8 9 9 10 10 10 10 11 11 12 13 13 14 14 14 14 13 13 13 13 13 14 14 15 15 15 15 15 15 15 15 15 15 15
7 7 7 7 8 8 9 9 9 10 10 10 11 11 12 13 14 14 14 14 14 13 12 12 12 12 12 13 13 14 14 14 14 14 15 15 15 15
6 7 7 7 7 8 8 9 9 10 10 10 10 11 11 12 13 14 14 13 13 12 12 12 11 11 11 12 12 12 13 13 13 14 14 14 14 14
6 6 6 7 7 7 8 8 9 9 10 10 10 10 10 11 12 12 12 12 12 11 11 12 11 11 11 11 11 12 12 12 12 13 13 14 14 14
6 6 6 6 7 7 7 8 8 9 9 9 9 10 10 10 11 12 12 12 12 11 11 11 11 11 11 11 11 11 11 11 12 12 12 13 13 13
6 6 6 6 7 7 7 8 8 9 9 9 9 9 9 10 11 11 12 12 13 13 12 11 12 11 11 11 11 11 11 11 12 12 12 12 12 13
6 6 6 6 6 7 7 7 8 8 9 9 9 9 9 10 10 11 11 12 13 13 13 12 12 12 12 11 11 11 11 11 11 12 12 12 12 12
6 6 6 6 7 7 7 7 8 8 8 9 9 9 9 9 10 10 11 11 11 12 12 12 12 12 12 12 12 12 11 11 11 11 11 12 12 12
6 6 6 6 7 7 7 7 8 8 8 9 9 9 9 9 9 10 10 10 11 11 11 11 12 12 12 12 13 13 12 12 12 11 11 11 11 11
6 6 6 7 7 7 7 8 8 8 8 8 9 9 9 9 9 9 10 10 10 11 11 11 11 11 11 12 12 12 12 12 12 11 11 11 11 11
6 6 7 7 7 7 7 8 8 8 8 8 9 9 9 9 9 9 9 10 10 11 11 11 10 10 10 10 11 11 11 11 11 11 11 11 11 10
6 6 7 7 7 7 7 8 8 8 8 9 9 9 9 9 9 9 9 9 10 10 11 11 11 11 10 10 10 10 11 11 11 10 10 10 11 10
6 7 7 7 7 8 8 8 8 8 8 9 9 9 9 9 9 9 9 9 10 10 10 10 11 11 11 12 12 11 11 11 11 11 10 10 9 9
7 7 7 7 7 8 8 8 8 8 9 9 9 9 9 9 9 9 9 9 9 9 10 10 11 11 10 11 11 11 11 10 10 10 10 9 8 8
7 7 7 7 8 8 8 8 8 9 9 9 9 9 9 9 9 9 9 9 9 10 10 10 10 10 10 10 11 11 11 10 9 9 9 10 9 9
8 8 8 8 8 8 8 8 8 9 9 9 9 9 9 9 9 9 9 9 9 9 10 9 9 9 9 9 10 10 10 10 9 8 8 8 9 9
Wind_Speed
7 6 5 4 3 3 2 2 2 2 3 4 2 3 4 5 11 12 11 15 17 18 18 18 19 20 20 21 22 23 23 24 25 25 26 26 26 26
6 7 6 5 4 4 3 2 3 3 4 4 3 2 4 5 8 9 9 12 13 14 15 15 16 17 18 19 20 21 22 23 23 23 23 23 23 23
7 7 8 7 5 5 4 3 3 3 5 4 2 1 3 7 6 6 8 8 7 9 10 11 13 14 15 16 18 19 20 20 20 20 20 20 20 19
8 8 9 7 7 6 5 5 4 4 4 4 2 2 3 7 8 8 6 6 6 7 7 8 9 11 13 14 15 16 17 17 18 17 17 17 17 16
9 9 9 8 8 6 6 6 5 5 4 4 3 2 2 5 7 7 8 6 6 8 9 8 7 7 9 10 12 13 14 14 15 15 15 14 14 13
10 9 9 9 9 9 7 7 6 5 5 4 3 3 3 4 7 8 6 4 4 5 8 9 10 10 8 9 10 12 12 13 14 14 14 14 14 13
10 9 10 12 14 10 8 8 7 6 5 5 5 3 4 7 7 6 8 7 4 3 5 4 6 6 7 9 10 12 14 15 16 16 16 16 16 15
10 9 10 12 14 15 15 14 12 9 8 6 6 6 6 6 6 9 9 8 5 4 4 4 4 6 4 6 10 14 15 16 17 18 18 18 18 17
11 10 12 12 11 9 11 14 14 16 14 9 8 7 7 7 9 11 10 8 5 7 5 3 3 4 4 8 11 14 16 17 18 19 19 19 19 19
11 11 11 11 11 9 8 8 8 10 12 9 8 7 7 7 10 10 10 8 7 5 4 4 3 3 4 7 9 12 15 17 17 18 19 20 20 19
12 12 12 12 14 14 9 8 7 7 10 12 10 9 9 10 10 9 11 11 8 4 2 4 4 3 3 4 7 10 13 16 17 18 19 20 21 20
9 10 14 14 14 15 10 9 9 8 7 7 8 8 8 10 13 12 13 13 9 5 4 5 5 4 4 2 3 6 9 12 15 17 19 20 19 16
7 7 7 13 14 14 11 8 10 8 7 8 7 7 7 8 9 9 10 12 10 5 9 6 5 4 5 4 2 2 4 5 8 10 15 16 16 15
6 6 7 11 12 13 10 11 12 9 6 7 7 7 8 8 8 9 9 8 6 7 12 9 6 7 6 5 4 4 3 4 6 5 8 11 11 11
5 7 8 9 9 9 11 12 9 6 6 6 8 8 7 7 8 7 7 7 6 8 13 6 9 10 6 6 7 6 4 4 5 4 4 4 5 7
4 4 4 6 6 6 7 7 6 6 6 6 7 6 5 6 7 7 7 8 7 6 6 7 10 13 6 6 8 8 6 9 9 6 5 3 6 10
3 2 1 2 3 4 4 5 5 5 6 5 5 5 6 7 7 7 7 8 7 9 8 5 6 5 6 8 8 9 8 7 8 8 6 5 4 8
2 2 2 3 3 4 5 5 5 6 6 6 6 6 6 7 7 8 9 9 9 9 9 9 10 6 4 3 4 10 9 8 8 8 5 5 5 6
3 4 4 4 4 4 5 5 6 6 6 6 6 6 6 6 7 8 10 9 9 10 11 11 12 9 8 7 5 9 11 10 10 9 7 5 6 7
4 5 5 5 4 5 5 5 6 5 5 6 6 6 7 7 7 9 10 10 10 9 9 11 12 10 9 9 7 7 14 12 11 11 8 4 4 6
5 6 6 6 5 5 5 5 6 6 6 6 7 7 7 7 7 8 9 13 11 10 13 13 10 10 7 7 7 5 7 14 15 10 10 7 5 4
6 6 6 6 6 6 6 6 6 6 6 7 7 8 8 8 8 9 10 11 11 10 10 9 10 9 6 7 8 8 9 8 10 15 17 12 7 8
7 7 6 6 6 6 6 7 7 6 6 7 7 8 8 8 8 9 10 11 10 10 11 11 10 8 6 6 7 7 10 9 7 6 5 8 12 14
Wind_Direction
270 270 264 258 246 241 239 234 238 262 262 259 252 216 187 174 180 180 181 194 198 200 202 204 207 209 212 214 216 217 217 218 219 220 221 221 221 222
269 268 267 260 253 241 228 227 227 231 251 247 241 228 178 164 158 153 160 166 175 186 193 200 205 209 213 215 216 217 217 217 217 218 220 221 220 220
278 271 264 260 255 249 232 221 224 222 251 266 260 229 152 147 129 119 121 123 135 163 181 194 203 208 212 214 215 215 214 214 214 214 215 215 216 218
271 269 267 266 254 245 236 229 222 219 232 258 261 224 164 155 140 128 115 111 109 125 149 170 188 201 206 209 209 209 209 208 208 208 208 208 209 211
258 257 259 258 255 245 236 232 225 229 223 237 250 243 159 146 132 116 110 107 104 107 110 120 142 168 184 190 192 194 194 194 195 195 195 194 193 191
256 251 250 247 246 240 236 229 221 220 222 231 233 236 180 155 142 140 133 119 108 97 92 93 100 106 127 150 163 167 168 169 168 167 165 163 160 157
259 254 251 252 248 240 232 220 211 210 213 223 222 215 192 170 163 154 147 134 103 110 104 82 82 79 80 103 126 140 146 147 147 148 147 145 142 141
255 254 257 263 258 249 240 225 209 204 205 212 217 213 206 181 164 159 152 150 147 148 114 81 71 77 57 74 114 127 132 136 137 138 138 137 135 133
245 246 258 259 252 241 239 233 223 216 204 198 211 213 206 188 171 171 170 159 143 150 122 94 66 72 50 75 110 122 126 129 131 132 132 130 129 128
241 238 239 246 249 236 232 231 224 218 211 205 206 213 212 197 183 175 162 131 107 113 106 112 95 74 55 59 89 116 125 128 129 129 128 127 125 122
242 239 234 236 237 227 221 221 222 226 219 207 200 200 198 193 176 156 155 154 149 144 110 117 124 98 67 51 66 98 120 128 130 129 128 126 122 116
247 241 237 233 229 217 210 209 214 216 201 197 197 198 200 197 186 179 172 169 156 152 157 127 136 132 106 66 62 86 104 117 127 131 131 130 127 118
248 241 235 229 224 217 206 206 213 202 193 187 187 191 196 199 197 193 183 175 167 158 162 143 142 132 124 128 113 105 118 125 124 132 136 137 137 133
245 237 231 227 222 216 209 212 212 201 188 182 185 193 199 200 197 193 188 180 163 153 162 153 143 152 136 134 145 137 134 145 144 144 147 143 136 135
244 245 236 224 216 211 207 201 195 190 182 184 192 198 197 190 181 182 177 155 129 143 161 158 147 151 141 145 149 152 152 172 171 158 161 159 152 145
265 266 247 212 199 189 184 183 184 186 180 184 192 192 179 177 181 177 178 166 149 142 151 153 153 153 143 144 152 160 160 167 175 176 165 167 170 171
279 265 225 179 172 169 168 172 183 185 187 179 179 179 179 182 184 177 174 167 164 163 158 142 128 115 120 144 152 160 156 156 166 167 161 167 182 181
265 241 234 212 195 184 179 181 192 195 192 184 178 179 182 182 183 178 176 173 170 166 161 154 144 125 100 59 140 162 164 163 161 164 157 159 181 190
241 238 236 227 212 197 189 189 195 197 189 184 185 184 179 178 178 180 178 176 172 168 164 161 164 159 160 169 185 176 169 165 164 171 174 163 178 187
230 234 235 232 225 211 202 201 200 190 185 188 189 187 180 176 178 181 180 177 169 163 163 168 177 177 178 169 161 178 178 168 170 176 174 150 138 160
238 237 235 229 227 221 212 203 195 192 188 187 191 188 181 175 179 180 178 172 168 169 175 182 180 154 117 118 126 144 172 181 174 171 167 155 149 152
243 242 240 234 226 223 215 207 200 196 190 189 190 188 183 180 180 179 176 175 176 175 176 166 151 153 156 164 161 157 161 167 177 176 174 169 164 179
243 242 238 233 227 218 210 205 201 199 195 193 188 184 182 180 181 180 178 175 173 170 165 160 161 166 169 162 155 153 157 162 162 161 175 191 189 191
Height
1465 1465 1464 1465 1465 1466 1467 1468 1469 1468 1468 1469 1470 1472 1474 1477 1481 1484 1488 1491 1495 1498 1501 1505 1508 1512 1515 1519 1523 1526 1530 1534 1538 1541 1544 1547 1550 1553
1459 1459 1459 1460 1461 1461 1462 1463 1465 1466 1465 1466 1468 1469 1472 1475 1477 1481 1484 1487 1491 1494 1497 1500 1503 1507 1510 1514 1518 1521 1525 1529 1532 1536 1539 1542 1545 1547
1453 1453 1453 1454 1455 1456 1457 1458 1459 1461 1462 1462 1464 1466 1468 1471 1474 1477 1480 1483 1486 1489 1492 1495 1498 1502 1505 1509 1513 1516 1520 1523 1527 1530 1534 1537 1539 1542
1446 1446 1447 1448 1449 1450 1452 1453 1454 1456 1457 1458 1460 1463 1465 1467 1471 1474 1476 1479 1482 1484 1487 1490 1493 1497 1500 1504 1508 1512 1515 1519 1522 1526 1529 1532 1535 1537
1439 1440 1440 1442 1442 1444 1446 1447 1449 1450 1452 1454 1455 1458 1460 1463 1466 1470 1473 1475 1478 1480 1483 1486 1489 1492 1496 1500 1504 1507 1511 1515 1518 1522 1524 1527 1530 1533
1432 1432 1433 1434 1436 1438 1440 1441 1443 1445 1446 1448 1450 1453 1456 1459 1462 1465 1469 1472 1474 1477 1479 1482 1485 1489 1492 1496 1500 1504 1507 1511 1514 1517 1520 1523 1525 1528
1425 1425 1426 1427 1428 1430 1433 1435 1438 1439 1440 1442 1445 1448 1451 1454 1457 1461 1465 1468 1471 1474 1476 1479 1482 1485 1489 1492 1496 1500 1504 1507 1510 1513 1516 1519 1521 1524
1417 1417 1418 1419 1421 1423 1425 1428 1431 1433 1435 1437 1439 1442 1445 1449 1453 1456 1460 1463 1467 1471 1474 1477 1480 1483 1486 1490 1493 1497 1500 1504 1507 1510 1513 1515 1518 1521
1408 1409 1409 1410 1413 1415 1417 1421 1423 1426 1429 1431 1433 1436 1440 1444 1448 1452 1455 1459 1463 1467 1472 1475 1479 1482 1485 1488 1491 1494 1498 1502 1505 1508 1510 1513 1515 1518
1400 1400 1400 1401 1404 1407 1410 1413 1416 1419 1422 1425 1428 1431 1435 1439 1443 1447 1450 1456 1461 1466 1470 1473 1477 1480 1483 1487 1490 1493 1496 1500 1503 1506 1508 1511 1514 1516
1391 1391 1392 1393 1395 1399 1402 1405 1408 1412 1416 1419 1422 1425 1429 1433 1437 1441 1446 1451 1456 1462 1466 1470 1473 1478 1482 1485 1489 1492 1495 1499 1502 1504 1507 1510 1512 1515
1382 1383 1384 1385 1387 1391 1395 1398 1402 1406 1410 1413 1416 1419 1422 1426 1431 1435 1441 1446 1450 1456 1461 1466 1470 1475 1480 1484 1487 1490 1494 1497 1500 1503 1506 1509 1511 1514
1375 1375 1376 1378 1381 1384 1388 1392 1395 1401 1404 1408 1411 1413 1416 1420 1425 1430 1435 1441 1445 1450 1455 1461 1466 1471 1475 1479 1484 1488 1492 1495 1498 1501 1504 1507 1510 1513
1370 1370 1371 1373 1375 1378 1382 1386 1391 1395 1399 1402 1405 1408 1411 1415 1419 1424 1430 1436 1442 1447 1452 1457 1461 1466 1471 1475 1480 1484 1488 1493 1497 1500 1503 1505 1508 1511
1367 1367 1367 1368 1371 1374 1377 1382 1386 1390 1394 1397 1400 1403 1407 1411 1415 1420 1425 1431 1437 1443 1449 1454 1459 1464 1469 1472 1476 1480 1485 1489 1494 1498 1501 1504 1507 1509
1365 1364 1364 1366 1368 1370 1374 1378 1382 1386 1390 1393 1397 1400 1404 1407 1410 1415 1420 1425 1431 1437 1444 1450 1456 1461 1466 1470 1474 1478 1482 1486 1490 1495 1499 1502 1505 1508
1363 1363 1363 1364 1365 1368 1371 1375 1379 1382 1386 1390 1394 1397 1400 1403 1407 1411 1416 1421 1425 1431 1438 1445 1451 1457 1463 1468 1472 1476 1480 1484 1488 1492 1496 1499 1503 1506
1362 1362 1362 1362 1364 1366 1369 1372 1376 1379 1383 1387 1390 1394 1397 1400 1403 1408 1412 1416 1421 1427 1433 1439 1445 1451 1457 1463 1468 1472 1476 1480 1485 1489 1493 1497 1500 1504
1360 1360 1361 1361 1363 1365 1367 1370 1373 1377 1380 1383 1386 1390 1393 1397 1400 1404 1407 1412 1417 1422 1428 1434 1439 1445 1451 1456 1462 1468 1472 1477 1482 1486 1490 1494 1498 1502
1357 1358 1359 1359 1361 1363 1365 1368 1370 1373 1376 1379 1383 1386 1390 1393 1396 1400 1404 1408 1413 1417 1423 1429 1435 1440 1446 1451 1456 1462 1468 1473 1477 1482 1487 1492 1498 1502
1355 1355 1356 1357 1358 1360 1362 1365 1367 1370 1372 1375 1379 1382 1385 1389 1393 1396 1400 1404 1409 1414 1419 1425 1431 1438 1444 1450 1455 1459 1464 1469 1475 1479 1484 1489 1493 1497
1351 1352 1352 1353 1355 1356 1358 1360 1363 1365 1368 1371 1374 1378 1382 1385 1389 1392 1396 1401 1405 1411 1417 1423 1428 1434 1440 1445 1450 1456 1461 1466 1472 1478 1484 1487 1489 1492
1348 1348 1349 1350 1351 1352 1354 1356 1359 1361 1364 1367 1370 1374 1377 1381 1385 1389 1393 1398 1402 1408 1413 1419 1424 1430 1436 1442 1447 1453 1458 1463 1468 1474 1480 1485 1489 1494